COSMOS 2477 (745)

Last updated on Sat Apr 04 2026 00:03:23 GMT+0000 (Coordinated Universal Time)

1 37868U 11064B 26092.43702075 -.00000001 00000+0 00000+0 0 9991 2 37868 65.2346 75.5056 0021883 243.9509 308.0017 2.13102755112146
UTC large
Height (km)
Speed (km/s)
/
Latitude / Longitude
Inclination (degrees)
Orbital Period (minutes)
Azimuth
Elevation
Range (km)
Doppler Factor

Next 0 passes for location: London (51.5072 / 0.1276)

Sorry there are no passes over London.